ラッセル-リニア彗星

156P/Russell-LINEAR (2007)

English version
Home page
Updated on April 4, 2008

---------------------------------------------------------------------

・ プロフィール

・ 軌道要素

The following orbital elements are taken from MPC 51823:

Epoch 2007 June 29.0 TT = JDT 2454280.5
T 2007 June 17.3643 TT                                  MPC
q   1.593111             (2000.0)            P               Q
n   0.1442222      Peri.  357.6776      +0.7998332      -0.5571865
a   3.601206       Node    39.0499      +0.5562459      +0.5483810
e   0.557617       Incl.   20.7480      +0.2255157      +0.6235555
P   6.83
From 42 observations 1986-2001, mean residual 0".6.

・ 光度変化

        m1 = 15.8 + 5 logΔ + 5.0 log r

---------------------------------------------------------------------

軌道要素はMPCのEphemerides and Orbital Elementsに掲載されたものです。
光度グラフはComet for Windowsで作成したものです。

---------------------------------------------------------------------

Copyright(C) Seiichi Yoshida (comet@aerith.net). All rights reserved.